Oceanside, CA

1:06 PM PDT on October 23, 2017 (GMT -0700)
Oceanside Municipal

Weather History for KOKB - June, 2013

Change the Weather History Date:

Sunday, June 9, 2013

  Actual Average Record
Temperature  
Mean Temperature 67 °F 64 °F  
Max Temperature 72 °F 72 °F 85 °F (2015)
Min Temperature 61 °F 57 °F 50 °F (2000)
Degree Days  
Heating Degree Days 0 1  
Month to date heating degree days 0 14  
Since 1 June heating degree days 0 14  
Since 1 July heating degree days 1771 2015  
Cooling Degree Days 2 1  
Month to date cooling degree days 11 5  
Year to date cooling degree days 40 15  
Since 1 June cooling degree days 11 5  
Growing Degree Days 14 (Base 50)    
Moisture  
Dew Point 55 °F    
Average Humidity 73    
Maximum Humidity 84    
Minimum Humidity 61    
Precipitation  
Precipitation 0.00 in 0.01 in 0.00 in (2017)
Month to date precipitation 0.01 0.03  
Year to date precipitation 2.32 9.19  
Since 1 July precipitation 6.16  
Snow  
Snow 0.00 in - - ()
Month to date snowfall 0.0  
Year to date snowfall 0.0  
Snow Depth 0.00 in    
Sea Level Pressure  
Sea Level Pressure 29.90 in    
Wind  
Wind Speed 3 mph (WSW)    
Max Wind Speed 12 mph    
Max Gust Speed 21 mph    
Visibility 10 miles    
Events      
T = Trace of Precipitation, MM = Missing Value Source: NWS Daily Summary

Daily Weather History Graph

Daily Weather History Graph

Search for Another Location

Airport or City:

Trip Planner

Search our weather history database for the weather conditions in past years. The results will help you decide how hot, cold, wet, or windy it might be!

Date:

Astronomy

Jun. 09, 2013 Rise Set
Actual Time 5:39 AM PDT 7:57 PM PDT
Civil Twilight 5:11 AM PDT 8:26 PM PDT
Nautical Twilight 4:35 AM PDT 9:01 PM PDT
Astronomical Twilight 3:57 AM PDT 9:40 PM PDT
Moon 6:37 AM PDT (6/9) 8:51 PM PDT (6/9)
Length of Visible Light 15h 15m
Length of Day
14h 18m
New Moon, 1% of the Moon is Illuminated
Jun 9
New Moon
Jun 16
First Quarter
Jun 23
Full
Jun 29
Last Quarter
Jul 8
New

Hourly Weather History & Observations

Time (PDT) Temp. Dew Point Humidity Pressure Visibility Wind Dir Wind Speed Gust Speed Precip Events Conditions
12:52 AM 62.1 °F 55.9 °F 80% 29.90 in 10.0 mi SW 3.5 mph - N/A   Overcast
1:52 AM 62.1 °F 55.9 °F 80% 29.89 in 10.0 mi Calm Calm - N/A   Overcast
2:52 AM 62.1 °F 55.9 °F 80% 29.89 in 10.0 mi Calm Calm - N/A   Overcast
3:52 AM 62.1 °F 55.9 °F 80% 29.89 in 10.0 mi Calm Calm - N/A   Overcast
4:52 AM 62.1 °F 55.9 °F 80% 29.88 in 10.0 mi Calm Calm - N/A   Overcast
5:52 AM 61.0 °F 55.9 °F 83% 29.88 in 10.0 mi Calm Calm - N/A   Overcast
6:52 AM 62.1 °F 55.9 °F 80% 29.90 in 8.0 mi Calm Calm - N/A   Overcast
7:52 AM 63.0 °F 55.9 °F 78% 29.91 in 9.0 mi Calm Calm - N/A   Overcast
8:52 AM 63.0 °F 57.0 °F 81% 29.92 in 9.0 mi WSW 3.5 mph - N/A   Overcast
9:52 AM 64.0 °F 57.0 °F 78% 29.92 in 8.0 mi Calm Calm - N/A   Overcast
10:52 AM 64.0 °F 57.0 °F 78% 29.93 in 9.0 mi West 3.5 mph - N/A   Overcast
11:52 AM 66.0 °F 57.0 °F 73% 29.93 in 10.0 mi WNW 3.5 mph - N/A   Overcast
12:14 PM 68.0 °F 57.2 °F 68% 29.93 in 10.0 mi Variable 3.5 mph - N/A   Overcast
12:52 PM 70.0 °F 55.9 °F 61% 29.92 in 10.0 mi Variable 5.8 mph - N/A   Scattered Clouds
1:52 PM 70.0 °F 55.9 °F 61% 29.91 in 10.0 mi West 9.2 mph 20.7 mph N/A   Partly Cloudy
2:52 PM 69.1 °F 55.9 °F 63% 29.91 in 10.0 mi WSW 9.2 mph - N/A   Clear
3:52 PM 69.1 °F 55.9 °F 63% 29.90 in 10.0 mi WSW 9.2 mph 20.7 mph N/A   Clear
4:52 PM 66.9 °F 55.0 °F 66% 29.89 in 10.0 mi SW 9.2 mph - N/A   Scattered Clouds
5:07 PM 66.2 °F 55.4 °F 68% 29.89 in 10.0 mi WSW 9.2 mph - N/A   Mostly Cloudy
5:37 PM 66.2 °F 55.4 °F 68% 29.88 in 10.0 mi West 5.8 mph - N/A   Partly Cloudy
5:52 PM 66.9 °F 55.0 °F 66% 29.88 in 10.0 mi West 3.5 mph - N/A   Partly Cloudy
6:40 PM 64.4 °F 55.4 °F 73% 29.87 in 10.0 mi West 4.6 mph - N/A   Mostly Cloudy
6:52 PM 64.0 °F 55.0 °F 73% 29.88 in 10.0 mi West 4.6 mph - N/A   Mostly Cloudy
7:17 PM 62.6 °F 55.4 °F 77% 29.88 in 10.0 mi Calm Calm - N/A   Scattered Clouds
7:52 PM 62.1 °F 55.0 °F 78% 29.88 in 10.0 mi Calm Calm - N/A   Partly Cloudy
8:42 PM 60.8 °F 55.4 °F 82% 29.89 in 10.0 mi WSW 4.6 mph - N/A   Mostly Cloudy
8:52 PM 61.0 °F 55.0 °F 81% 29.89 in 10.0 mi Calm Calm - N/A   Mostly Cloudy
9:52 PM 60.1 °F 54.0 °F 80% 29.90 in 10.0 mi Calm Calm - N/A   Partly Cloudy
10:12 PM 59.0 °F 53.6 °F 82% 29.90 in 10.0 mi Calm Calm - N/A   Mostly Cloudy
10:52 PM 57.9 °F 53.1 °F 84% 29.91 in 10.0 mi Calm Calm - N/A   Scattered Clouds
10:57 PM 57.2 °F 53.6 °F 88% 29.90 in 10.0 mi Calm Calm - N/A   Mostly Cloudy
11:52 PM 57.0 °F 53.1 °F 87% 29.90 in 10.0 mi Calm Calm - N/A   Overcast